Total_Precipitation_Accumulation
0.00 0.00 0.00 0.00 0.00 0.00 0.01 0.02 0.04 0.11 0.16 0.15 0.19 0.21 0.27 0.36 0.45 0.90 0.55 0.25 0.14 0.07 0.04 0.04 0.05 0.05 0.06 0.07 0.09 0.09 0.08 0.08 0.08 0.09 0.10 0.10 0.10 0.09 0.09 0.10 0.13 0.19 0.22 0.21 0.19 0.19 0.20 0.18 0.12
0.00 0.00 0.00 0.00 0.00 0.00 0.02 0.03 0.07 0.13 0.15 0.17 0.18 0.20 0.23 0.26 0.19 0.15 0.17 0.16 0.15 0.07 0.04 0.03 0.05 0.05 0.05 0.06 0.08 0.10 0.10 0.08 0.08 0.09 0.09 0.09 0.09 0.09 0.09 0.10 0.14 0.20 0.25 0.25 0.23 0.21 0.20 0.17 0.12
0.00 0.00 0.00 0.00 0.00 0.01 0.06 0.08 0.09 0.13 0.14 0.15 0.23 0.30 0.31 0.35 0.31 0.19 0.16 0.16 0.16 0.09 0.05 0.04 0.05 0.05 0.06 0.06 0.07 0.10 0.11 0.09 0.09 0.09 0.09 0.09 0.10 0.10 0.11 0.13 0.14 0.17 0.22 0.21 0.16 0.14 0.14 0.14 0.11
0.00 0.00 0.00 0.00 0.00 0.01 0.03 0.09 0.14 0.13 0.16 0.19 0.25 0.38 0.37 0.38 0.33 0.25 0.20 0.21 0.18 0.12 0.06 0.04 0.06 0.06 0.08 0.09 0.09 0.11 0.10 0.11 0.11 0.12 0.13 0.14 0.14 0.13 0.15 0.19 0.19 0.19 0.19 0.18 0.15 0.13 0.12 0.14 0.11
0.00 0.00 0.00 0.00 0.00 0.01 0.04 0.09 0.16 0.15 0.19 0.27 0.33 0.49 0.59 0.58 0.57 0.48 0.28 0.26 0.28 0.19 0.11 0.07 0.07 0.09 0.12 0.14 0.16 0.17 0.17 0.17 0.17 0.18 0.20 0.19 0.18 0.19 0.19 0.20 0.22 0.21 0.21 0.19 0.17 0.17 0.15 0.13 0.12
0.00 0.00 0.00 0.00 0.01 0.02 0.04 0.10 0.15 0.19 0.21 0.21 0.34 0.61 0.96 0.89 0.70 0.72 0.57 0.39 0.37 0.24 0.15 0.12 0.10 0.12 0.17 0.21 0.23 0.26 0.23 0.20 0.20 0.22 0.24 0.21 0.18 0.18 0.18 0.18 0.19 0.21 0.23 0.23 0.17 0.12 0.09 0.08 0.10
0.00 0.00 0.00 0.00 0.02 0.03 0.05 0.09 0.15 0.17 0.18 0.27 0.50 0.78 1.08 1.05 0.83 0.82 0.80 0.60 0.52 0.37 0.21 0.17 0.13 0.13 0.20 0.28 0.26 0.24 0.23 0.22 0.24 0.28 0.30 0.26 0.21 0.17 0.16 0.19 0.20 0.21 0.21 0.17 0.11 0.07 0.06 0.06 0.07
0.00 0.00 0.00 0.00 0.01 0.04 0.07 0.08 0.12 0.16 0.24 0.40 0.65 0.77 1.02 1.13 0.99 0.81 0.75 0.64 0.57 0.52 0.35 0.28 0.26 0.24 0.24 0.26 0.27 0.27 0.26 0.27 0.27 0.28 0.26 0.23 0.17 0.16 0.17 0.17 0.18 0.18 0.19 0.18 0.14 0.10 0.09 0.09 0.08
0.00 0.00 0.00 0.01 0.02 0.04 0.06 0.09 0.10 0.13 0.20 0.37 0.47 0.58 0.87 0.98 0.91 0.89 0.85 0.72 0.64 0.57 0.51 0.46 0.41 0.38 0.34 0.29 0.25 0.28 0.25 0.26 0.24 0.21 0.19 0.19 0.21 0.27 0.27 0.23 0.22 0.23 0.23 0.22 0.18 0.16 0.14 0.12 0.10
0.00 0.00 0.00 0.01 0.02 0.03 0.06 0.08 0.09 0.12 0.16 0.29 0.44 0.52 0.66 0.87 0.98 1.03 1.04 0.92 0.82 0.76 0.74 0.70 0.69 0.62 0.54 0.48 0.47 0.44 0.37 0.33 0.27 0.30 0.26 0.27 0.51 0.61 0.52 0.52 0.42 0.37 0.32 0.26 0.24 0.22 0.19 0.17 0.16
0.00 0.00 0.01 0.01 0.02 0.03 0.06 0.08 0.08 0.12 0.23 0.30 0.52 0.84 0.82 0.89 1.07 1.24 1.25 1.22 1.24 1.15 0.88 0.80 0.90 0.89 0.95 0.99 0.79 0.75 0.75 0.65 0.51 0.64 0.60 0.62 0.78 0.73 0.72 0.78 0.64 0.53 0.45 0.42 0.44 0.32 0.27 0.26 0.30
0.00 0.01 0.02 0.01 0.01 0.02 0.04 0.09 0.12 0.15 0.32 0.41 0.60 0.89 1.20 1.18 1.33 1.32 1.38 1.49 1.46 1.49 1.25 1.00 0.93 0.91 1.04 1.16 1.08 1.03 1.00 0.92 0.83 0.88 0.75 0.84 0.96 1.05 1.13 1.27 1.11 1.00 0.90 0.85 0.74 0.65 0.50 0.45 0.46
0.00 0.00 0.01 0.02 0.02 0.01 0.05 0.08 0.14 0.15 0.17 0.38 0.58 0.72 1.11 1.11 1.16 1.31 1.55 1.92 1.99 1.81 1.59 1.32 1.12 1.09 1.17 1.29 1.31 1.25 1.22 1.17 1.21 1.30 1.11 1.11 1.07 1.17 1.46 1.52 1.65 1.40 1.36 1.29 1.15 0.98 0.90 0.78 0.69
0.00 0.00 0.00 0.01 0.01 0.03 0.07 0.09 0.12 0.11 0.11 0.21 0.34 0.48 0.78 0.94 1.21 1.55 1.81 2.13 2.49 2.31 1.91 1.65 1.50 1.34 1.23 1.22 1.31 1.31 1.28 1.40 1.48 1.61 1.52 1.48 1.49 1.63 1.98 2.05 1.95 1.74 1.78 1.86 1.84 1.64 1.41 1.20 1.11
0.00 0.00 0.01 0.01 0.01 0.02 0.04 0.08 0.09 0.11 0.13 0.18 0.26 0.41 0.62 0.97 1.20 1.70 2.10 2.32 2.63 2.37 2.26 2.06 1.90 1.75 1.46 1.31 1.42 1.51 1.43 1.46 1.53 1.74 1.86 1.83 1.85 2.09 2.16 2.40 2.36 2.17 2.10 2.04 1.98 2.09 2.05 1.72 1.46
0.00 0.00 0.01 0.02 0.01 0.02 0.03 0.09 0.11 0.12 0.14 0.19 0.27 0.43 0.59 0.87 1.13 1.36 1.71 2.03 2.50 2.53 2.24 2.20 1.93 1.71 1.74 1.65 1.78 1.84 1.95 2.02 1.95 2.00 2.28 2.37 2.36 2.40 2.43 2.46 2.46 2.37 2.33 2.52 2.58 2.48 2.42 2.30 2.04
0.01 0.00 0.01 0.02 0.02 0.03 0.03 0.10 0.17 0.11 0.12 0.18 0.26 0.47 0.77 0.83 0.99 1.10 1.38 1.60 1.95 2.01 2.03 2.05 1.98 1.80 1.73 1.93 2.22 2.35 2.54 2.76 2.88 2.86 3.06 3.03 2.84 2.80 2.89 2.95 2.98 2.83 2.85 2.81 2.70 2.84 2.74 2.64 2.42
0.00 0.02 0.02 0.02 0.02 0.03 0.03 0.07 0.17 0.19 0.21 0.27 0.32 0.43 0.70 0.80 1.05 1.28 1.36 1.39 1.70 1.79 1.87 1.99 2.14 2.20 2.06 2.08 2.31 2.69 2.86 3.05 3.41 3.48 3.55 3.62 3.63 3.57 3.57 3.53 3.52 3.37 3.25 3.11 3.03 2.99 2.77 2.64 2.41
0.00 0.01 0.02 0.02 0.02 0.02 0.05 0.11 0.17 0.21 0.25 0.35 0.43 0.50 0.61 0.78 1.13 1.45 1.52 1.57 1.80 2.02 2.19 2.11 2.17 2.37 2.52 2.76 2.77 2.91 3.24 3.61 3.81 4.00 4.12 4.11 4.04 4.03 3.86 3.74 3.78 3.60 3.42 3.23 3.08 2.98 2.89 2.60 2.36
0.00 0.00 0.01 0.03 0.04 0.04 0.08 0.18 0.25 0.28 0.29 0.37 0.50 0.56 0.57 0.70 0.98 1.39 1.50 1.65 1.85 2.02 2.22 2.33 2.40 2.73 3.19 3.60 3.99 4.34 4.61 4.59 4.74 4.78 4.75 4.59 4.46 4.35 4.15 4.09 3.98 3.75 3.55 3.31 3.09 2.95 2.91 2.68 2.48
0.00 0.00 0.01 0.03 0.06 0.09 0.13 0.28 0.36 0.39 0.45 0.50 0.57 0.62 0.69 0.82 1.00 1.17 1.38 1.63 1.86 2.03 2.27 2.44 2.70 3.31 4.10 4.47 4.76 5.28 5.57 5.37 5.16 4.93 4.83 4.73 4.71 4.70 4.52 4.39 4.12 3.86 3.57 3.30 3.04 2.85 2.78 2.70 2.57
0.00 0.01 0.01 0.03 0.05 0.11 0.14 0.34 0.54 0.59 0.66 0.61 0.70 0.83 0.95 0.99 1.07 1.22 1.41 1.67 1.98 2.28 2.39 2.55 3.01 3.73 4.37 4.82 5.36 5.88 6.10 6.10 5.93 5.44 4.99 4.54 4.20 4.01 3.92 3.86 3.69 3.46 3.19 3.00 2.77 2.57 2.48 2.57 2.46
0.01 0.01 0.01 0.04 0.05 0.09 0.12 0.29 0.64 0.83 0.89 0.87 0.93 0.94 0.97 1.00 1.11 1.25 1.39 1.59 1.79 2.07 2.47 2.71 3.19 3.84 4.50 5.17 5.82 6.18 6.38 6.34 5.91 5.12 4.37 3.91 3.61 3.33 3.12 3.01 2.91 2.77 2.64 2.49 2.42 2.36 2.25 2.20 2.11
0.01 0.01 0.02 0.04 0.06 0.11 0.11 0.25 0.70 1.04 1.21 1.23 1.14 1.09 1.05 0.99 1.03 1.13 1.31 1.40 1.68 1.96 2.24 2.64 2.93 3.53 4.19 4.75 5.24 5.37 5.51 5.44 5.01 4.54 4.04 3.64 3.19 2.70 2.35 2.17 2.07 1.98 1.91 1.92 1.95 1.97 1.93 1.87 1.83
0.01 0.02 0.08 0.16 0.19 0.19 0.15 0.32 0.77 1.10 1.13 1.08 1.11 1.19 1.15 1.00 1.04 1.22 1.45 1.37 1.58 1.83 2.13 2.50 2.89 3.27 3.75 4.22 4.64 4.87 4.99 4.81 4.36 3.91 3.51 3.06 2.58 2.17 1.83 1.65 1.59 1.55 1.52 1.48 1.51 1.55 1.54 1.53 1.53
0.01 0.03 0.15 0.26 0.30 0.32 0.33 0.58 0.98 1.06 0.99 0.94 0.94 0.99 1.08 1.08 1.05 1.10 1.24 1.30 1.50 1.68 1.94 2.28 2.59 2.89 3.07 3.24 3.55 3.77 3.92 3.78 3.45 2.98 2.52 2.22 1.96 1.70 1.48 1.32 1.26 1.15 1.05 1.03 1.09 1.13 1.15 1.17 1.25
0.03 0.05 0.11 0.13 0.17 0.34 0.64 0.90 1.24 1.21 1.09 1.00 0.91 0.90 0.95 0.92 0.90 0.96 1.08 1.20 1.40 1.67 1.89 2.14 2.27 2.41 2.55 2.64 2.68 2.72 2.81 2.71 2.48 2.20 1.91 1.64 1.39 1.19 1.05 0.94 0.86 0.82 0.76 0.76 0.81 0.87 0.88 0.92 1.00
0.04 0.06 0.08 0.13 0.29 0.47 0.74 1.16 1.47 1.60 1.49 1.32 1.06 0.96 0.89 0.94 0.95 0.97 1.03 1.12 1.21 1.30 1.54 1.76 1.84 1.90 1.95 1.97 1.99 1.99 1.97 1.90 1.81 1.64 1.44 1.21 1.06 0.91 0.78 0.67 0.60 0.59 0.61 0.64 0.62 0.66 0.69 0.71 0.76
0.06 0.08 0.10 0.15 0.21 0.43 0.79 1.36 1.61 1.87 1.92 1.71 1.37 1.19 1.13 1.13 1.08 1.03 1.04 1.03 1.05 1.06 1.19 1.39 1.53 1.52 1.56 1.61 1.56 1.47 1.50 1.45 1.36 1.29 1.20 1.06 0.96 0.85 0.74 0.65 0.62 0.59 0.56 0.54 0.56 0.57 0.60 0.65 0.68
0.08 0.11 0.16 0.25 0.27 0.30 0.67 1.52 1.91 2.04 1.98 1.70 1.50 1.34 1.28 1.21 1.08 1.00 0.93 0.85 0.85 0.90 0.94 1.02 1.15 1.17 1.17 1.17 1.17 1.19 1.19 1.18 1.12 1.02 0.92 0.79 0.71 0.66 0.60 0.55 0.55 0.54 0.51 0.51 0.51 0.50 0.48 0.47 0.48